Weather in Ozery

Russia / Moscow Oblast     54°51′14″N   38°33′35″E
temp.,
°C
wind,
m/s
gust,
m/s
humid.,
%
clouds,
%
prec.,
mm/h
press.,
hPa
HPBL,
m
6 march, sat
sat600:00−11wnw23870 0.0 101521
03:00−11w23890 0.0 101621
06:00−12wnw239287 0.0 101622
09:00−11nw359271 0.0 1017174
12:00−6nw468836 0.0 1017620
15:00−5wnw357867 0.2 1016957
18:00−8w3489100 0.4 101678
21:00−11w448968 0.4 101663
7 march, sun
sun700:00−13wsw45880 0.0 101487
03:00−11sw612907 0.0 1011222
06:00−9sw8168587 0.0 1007541
09:00−6sw10178993 0.1 1002950
12:00−4sw111790100 0.6 9981163
15:00−1wsw111890100 1.2 9951326
18:00−6wnw51277100 1.3 996982
21:00−10wsw488067 1.3 998107
8 march, mon
mon800:00−8wsw7149467 0.1 997524
03:00−7wsw6139383 0.4 997535
06:00−9wsw5119499 0.1 996324
09:00−9w6108899 0.9 999629
12:00−7wnw7108396 0.2 1002876
15:00−6wnw7108698 0.3 10041107
18:00−7nw51093100 0.2 1007498
21:00−10nw4894100 0.3 1010210
9 march, tue
tue900:00−15nw349551 0.0 101239
03:00−17nw339753 0.0 101430
06:00−18nnw339781 0.0 101539
09:00−16nnw369591 0.0 1017218
12:00−12nnw358697 0.0 1018491
15:00−11nnw468698 0.0 1019693
18:00−14nnw3491100 0.0 101947
21:00−18nnw349462 0.0 102230
10 march, wed
wed1000:00−20nnw23960 0.0 102320
03:00−23nnw12960 0.0 102420
06:00−23w119531 0.0 102420
09:00−18sse239266 0.0 1024130
12:00−13se3494100 0.4 1024311
15:00−12se4592100 0.6 1022421
18:00−14ese4795100 0.2 1022248
21:00−15ese489598 0.3 1023205